Regional Weather Roundup
Issued by NWS Mt. Holly, NJ

Home | Current Version | Previous Version | Text Only | Print | Product List | Glossary On
Versions: 1 2 3 4 5 6 7 8 9 10 11 12 13 14 15 16 17 18 19 20 21 22 23 24 25 26 27 28 29 30 31 32 33 34 35 36 37 38 39 40 41 42 43 44 45 46 47 48 49 50
000
ASUS41 KPHI 240612
RWRPHI

REGIONAL WEATHER ROUNDUP
NATIONAL WEATHER SERVICE MOUNT HOLLY NJ
100 AM EST FRI NOV 24 2017

NOTE:  "FAIR" INDICATES FEW OR NO CLOUDS BELOW 12,000 FEET WITH NO
SIGNIFICANT WEATHER AND/OR OBSTRUCTIONS TO VISIBILITY.

 * = STATION DOES NOT REPORT PRECIPITATION (E.G. RAIN, SNOW, ETC.)
        OR FOG.

NJZ015>026-240700-
SOUTHERN NEW JERSEY

CITY           SKY/WX    TMP DP  RH WIND       PRES   REMARKS
POMONA         CLEAR     29  23  78 CALM      30.07F
6HR MIN TEMP:  26; 6HR MAX TEMP:  32;

WILDWOOD*      CLEAR     26  24  92 CALM      30.09S
MILLVILLE      CLEAR     23  22  96 W3        30.07F
WRIGHTSTOWN    CLEAR     24  21  89 CALM      30.03F
MOUNT HOLLY    CLEAR     26  22  84 CALM      30.06F
TRENTON        CLEAR     30  20  66 W5        30.04F WCI  25
6HR MIN TEMP:  29; 6HR MAX TEMP:  37;


$$
NJZ001>014-240700-
NORTHERN NEW JERSEY

CITY           SKY/WX    TMP DP  RH WIND       PRES   REMARKS
SUSSEX         CLEAR     24  21  88 CALM      30.01F
ANDOVER*       NOT AVBL
MORRISTOWN     CLEAR     23  23 100 CALM      30.03F
NEWARK         PTCLDY    32  20  61 SW3       30.04F
TETERBORO      CLEAR     32  22  66 CALM      30.03F
CALDWELL       CLEAR     29  21  72 SW3       30.04F
SOMERVILLE     CLEAR     23  21  92 CALM      30.03F
ALLAIRE*       CLEAR     30  21  69 S3        30.06S
TOMS RIVER*    CLEAR     22  19  89 CALM      30.07F

$$
PAZ043-044-047-054-055-060>062-066>071-240700-
EASTERN PENNSYLVANIA

CITY           SKY/WX    TMP DP  RH WIND       PRES   REMARKS
PHILADELPHIA   CLEAR     34  22  61 W3        30.07F
6HR MIN TEMP:  32; 6HR MAX TEMP:  39;

NORTH PHILA    CLEAR     29  22  75 CALM      30.07F
BLUE BELL*     CLEAR     27  23  86 CALM      30.06F
DOYLESTOWN     CLEAR     27  20  75 S3        30.03F
QUAKERTOWN*    CLEAR     25  21  86 CALM      30.04F
PERKASIE*      FAIR      25  23  93 CALM      30.04S
POTTSTOWN      CLEAR     24  20  84 CALM      30.06F
LANCASTER      CLEAR     28  24  85 CALM      30.05F
COATESVILLE    CLEAR     32  21  64 W5        30.04F WCI  27
READING        CLEAR     28  24  85 CALM      30.04F
6HR MIN TEMP:  27; 6HR MAX TEMP:  35;

ALLENTOWN      CLEAR     25  19  78 CALM      30.04F
6HR MIN TEMP:  25; 6HR MAX TEMP:  35;

MOUNT POCONO   CLEAR     27  19  72 W9        29.94F WCI  18
6HR MIN TEMP:  24; 6HR MAX TEMP:  28;

HAZLETON       CLEAR     21  14  73 CALM      30.01S
LEHIGHTON      FAIR      21  21 100 CALM      30.05S
WILKES BARRE   CLEAR     29  22  75 S3        30.00S

$$
DEZALL-MDZ008-012-015-019-020-240700-
DELAWARE AND EASTERN MARYLAND

CITY           SKY/WX    TMP DP  RH WIND       PRES   REMARKS
WILMINGTON     CLEAR     30  24  78 CALM      30.07F
6HR MIN TEMP:  27; 6HR MAX TEMP:  35;

DOVER          CLEAR     31  28  89 CALM      30.08S
GEORGETOWN     CLEAR     28  24  85 CALM      30.09S
6HR MIN TEMP:  28; 6HR MAX TEMP:  33;

EASTON         CLEAR     30  27  86 CALM        N/A
ABERDEEN       CLEAR     26  24  92 CALM      30.07F
PATUXENT       CLEAR     28  27  96 W3        30.08F
OCEAN CITY     CLEAR     26  25  96 CALM      30.09F
WALLOPS ISLAND CLEAR     28  26  92 CALM      30.09F
CAMBRIDGE      CLEAR     28  27  93 CALM      30.09S
SALISBURY      CLEAR     27  25  92 CALM      30.08F

$$
PAZ001-021-NYZ056-072-MDZ011-DCZ001-240700-
OTHER NEARBY LOCATIONS

CITY           SKY/WX    TMP DP  RH WIND       PRES   REMARKS
HARRISBURG     PTCLDY    28  25  88 CALM      30.04F
STATE COLLEGE  MOCLDY    35  22  58 W7        30.00F WCI  29
WILLIAMSPORT   CLOUDY    33  26  75 CALM      30.02F
BINGHAMTON     CLOUDY    31  20  63 SW7       29.94F WCI  24
NEW YORK CITY  CLEAR     37  21  52 W5        30.05F WCI  33
BALTIMORE      CLEAR     28  25  88 CALM      30.06F
WASHINGTON DC  CLEAR     36  28  73 SW3       30.08F

$$



USA.gov is the U.S. government's official web portal to all federal, state and local government web resources and services.